M I D A S
Marine Information and Data Acquisition System
Tripno 1701 of the Zeeleeuw from 2009-05-28 06:58:06 to 2009-05-28 15:08:03
Back to CruiseResearch ActivitiesStationsMapUnderway DataData graphs

EquipmentUnitsComments
TimeDGPSUTC
LatitudeDGPSDM.mWGS84
LongitudeDGPSDM.mWGS84
SpeedMeteo Stationm/sRelative wind speed
DirectionMeteo StationdegRelative wind direction
TemperatureMeteo Stationdeg CelciusAir temperature
PressureMeteo StationPaAtmospheric pressure
HumidityMeteo Station%Relative humidity
Missing or incorrect values are displayed as -999
Metereological data collected by the RV Zeeleeuw from 2009-05-28 07:10:27 to 2009-05-28 15:17:22
Time Latitude Longitude Speed Direction Temperature Pressure Humidity
2009-05-28 07:11 51°13.679 2°55.905 5.7 39 14.6 102710 98
2009-05-28 07:12 51°13.696 2°55.827 5.5 32 14.5 102710 97
2009-05-28 07:13 51°13.698 2°55.755 5.6 33 14.5 102710 97
2009-05-28 07:14 51°13.706 2°55.745 4.6 263 14.6 102720 97
2009-05-28 07:15 51°13.703 2°55.742 3.2 266 14.6 102720 97
2009-05-28 07:16 51°13.72 2°55.727 8.4 38 14.6 102710 96
2009-05-28 07:17 51°13.794 2°55.66 5.3 316 14.6 102720 96
2009-05-28 07:18 51°13.901 2°55.582 5.4 319 14.6 102720 96
2009-05-28 07:19 51°14.017 2°55.504 6.1 35 14.6 102720 96
2009-05-28 07:20 51°14.137 2°55.413 9.1 36 14.6 102730 96
2009-05-28 07:21 51°14.258 2°55.278 12.2 319 14.7 102720 96
2009-05-28 07:22 51°14.366 2°55.087 13.3 318 14.6 102710 96
2009-05-28 07:23 51°14.478 2°54.852 14.6 315 14.5 102710 96
2009-05-28 07:24 51°14.613 2°54.62 12.3 39 14.5 102710 96
2009-05-28 07:25 51°14.765 2°54.423 13.6 38 14.4 102710 97
2009-05-28 07:26 51°14.925 2°54.243 14.2 40 14.4 102680 97
2009-05-28 07:27 51°15.087 2°54.077 14.5 36 14.4 102690 97
2009-05-28 07:28 51°15.254 2°53.919 11.2 36 14.3 102700 97
2009-05-28 07:29 51°15.423 2°53.769 11.5 36 14.3 102700 97
2009-05-28 07:30 51°15.595 2°53.627 13 35 14.2 102700 97
2009-05-28 07:31 51°15.768 2°53.484 12.8 34 14.2 102700 97
2009-05-28 07:32 51°15.942 2°53.338 11.6 36 14.2 102670 97
2009-05-28 07:33 51°16.117 2°53.191 11.1 38 14.2 102670 97
2009-05-28 07:34 51°16.291 2°53.042 13.5 38 14.2 102680 98
2009-05-28 07:35 51°16.464 2°52.893 11.3 37 14.2 102690 98
2009-05-28 07:36 51°16.638 2°52.747 14.4 36 14.1 102680 98
2009-05-28 07:37 51°16.814 2°52.62 10.7 32 14.1 102680 98
2009-05-28 07:38 51°17.001 2°52.555 11.4 240 14.1 102690 98
2009-05-28 07:39 51°17.192 2°52.535 13.5 241 14.1 102690 98
2009-05-28 07:40 51°17.383 2°52.515 10.4 238 14.1 102690 95
2009-05-28 07:41 51°17.573 2°52.491 12 238 14.2 102690 98
2009-05-28 07:42 51°17.763 2°52.474 13 242 14.2 102690 98
2009-05-28 07:43 51°17.954 2°52.462 10.6 242 14.2 102730 98
2009-05-28 07:44 51°18.14 2°52.503 9.5 244 14.2 102730 98
2009-05-28 07:45 51°18.323 2°52.566 9.7 244 14.2 102740 98
2009-05-28 07:46 51°18.503 2°52.648 8.5 249 14.2 102730 98
2009-05-28 07:47 51°18.683 2°52.73 8.9 245 14.2 102740 98
2009-05-28 07:48 51°18.865 2°52.807 8.5 245 14.2 102740 98
2009-05-28 07:49 51°19.047 2°52.883 8.6 247 14.2 102740 98
2009-05-28 07:50 51°19.229 2°52.957 8.8 246 14.2 102740 98
2009-05-28 07:51 51°19.412 2°53.031 8.3 242 14.2 102750 98
2009-05-28 07:52 51°19.596 2°53.105 7.1 242 14.2 102750 98
2009-05-28 07:53 51°19.776 2°53.192 6.8 240 14.3 102740 98
2009-05-28 07:54 51°19.951 2°53.296 8 246 14.3 102750 98
2009-05-28 07:55 51°20.124 2°53.401 7 246 14.3 102750 98
2009-05-28 07:56 51°20.297 2°53.505 8.1 246 14.3 102760 98
2009-05-28 07:57 51°20.467 2°53.618 6.7 242 14.3 102750 98
2009-05-28 07:58 51°20.638 2°53.728 8.2 245 14.3 102760 98
2009-05-28 07:59 51°20.81 2°53.834 7.8 248 14.3 102750 98
2009-05-28 08:00 51°20.983 2°53.936 7.7 242 14.3 102750 98
2009-05-28 08:01 51°21.155 2°54.044 7.3 244 14.3 102750 98
2009-05-28 08:02 51°21.328 2°54.147 7.1 244 14.3 102750 98
2009-05-28 08:03 51°21.493 2°54.27 6.5 250 14.4 102750 98
2009-05-28 08:04 51°21.649 2°54.421 6.8 251 14.4 102750 98
2009-05-28 08:05 51°21.786 2°54.608 4.5 246 14.4 102750 98
2009-05-28 08:06 51°21.904 2°54.828 6.2 256 14.5 102750 98
2009-05-28 08:07 51°22.014 2°55.059 3.7 261 14.5 102750 98
2009-05-28 08:08 51°22.099 2°55.31 2.3 265 14.5 102750 98
2009-05-28 08:09 51°22.176 2°55.568 3.4 266 14.5 102750 98
2009-05-28 08:10 51°22.256 2°55.828 3 262 14.5 102750 97
2009-05-28 08:11 51°22.335 2°56.078 5.6 255 14.5 102750 97
2009-05-28 08:12 51°22.417 2°56.328 4.9 260 14.5 102750 97
2009-05-28 08:13 51°22.5 2°56.576 5.5 256 14.5 102750 97
2009-05-28 08:14 51°22.618 2°56.785 8.1 250 14.6 102750 97
2009-05-28 08:15 51°22.795 2°56.836 11.7 236 14.6 102760 97
2009-05-28 08:16 51°22.985 2°56.796 12.7 236 14.6 102760 97
2009-05-28 08:17 51°23.175 2°56.753 11.3 239 14.6 102760 97
2009-05-28 08:18 51°23.367 2°56.73 10.8 33 14.6 102760 97
2009-05-28 08:19 51°23.559 2°56.739 10.6 32 14.6 102750 97
2009-05-28 08:20 51°23.75 2°56.755 10.1 235 14.5 102770 97
2009-05-28 08:21 51°23.94 2°56.771 8.7 236 14.6 102770 97
2009-05-28 08:22 51°24.129 2°56.79 8.6 239 14.5 102770 97
2009-05-28 08:23 51°24.32 2°56.809 9.3 241 14.6 102760 97
2009-05-28 08:24 51°24.513 2°56.828 11.4 239 14.5 102760 97
2009-05-28 08:25 51°24.702 2°56.848 11.1 238 14.5 102760 97
2009-05-28 08:26 51°24.895 2°56.868 10.3 241 14.5 102760 97
2009-05-28 08:27 51°25.086 2°56.891 11.3 239 14.5 102770 97
2009-05-28 08:28 51°25.278 2°56.912 7.9 240 14.5 102770 97
2009-05-28 08:29 51°25.47 2°56.933 9.1 239 14.5 102760 97
2009-05-28 08:30 51°25.66 2°56.954 10.2 241 14.4 102770 97
2009-05-28 08:31 51°25.848 2°56.993 10.1 243 14.4 102770 97
2009-05-28 08:32 51°26.031 2°57.066 7 241 14.5 102780 97
2009-05-28 08:33 51°26.214 2°57.143 7.4 239 14.5 102780 97
2009-05-28 08:34 51°26.397 2°57.216 8.5 241 14.4 102770 97
2009-05-28 08:35 51°26.581 2°57.296 8.9 243 14.4 102770 97
2009-05-28 08:36 51°26.764 2°57.37 10 243 14.4 102770 97
2009-05-28 08:37 51°26.947 2°57.442 9 244 14.4 102760 97
2009-05-28 08:38 51°27.129 2°57.515 9.4 242 14.4 102770 97
2009-05-28 08:39 51°27.311 2°57.59 7.7 243 14.4 102770 97
2009-05-28 08:40 51°27.495 2°57.67 8.5 246 14.4 102780 97
2009-05-28 08:41 51°27.675 2°57.745 9.5 244 14.4 102780 97
2009-05-28 08:42 51°27.861 2°57.817 11 242 14.4 102770 97
2009-05-28 08:43 51°28.052 2°57.849 9 31 14.5 102760 97
2009-05-28 08:44 51°28.247 2°57.854 12.3 238 14.4 102770 97
2009-05-28 08:45 51°28.441 2°57.821 10.6 237 14.4 102760 97
2009-05-28 08:46 51°28.632 2°57.773 11.5 33 14.4 102770 97
2009-05-28 08:47 51°28.82 2°57.708 12.3 34 14.3 102770 97
2009-05-28 08:48 51°29.005 2°57.646 10.9 234 14.3 102780 97
2009-05-28 08:49 51°29.195 2°57.575 12.5 33 14.3 102770 97
2009-05-28 08:50 51°29.373 2°57.47 11.7 38 14.2 102770 97
2009-05-28 08:51 51°29.552 2°57.345 10.7 36 14.2 102780 97
2009-05-28 08:52 51°29.733 2°57.221 12.8 36 14.2 102770 97
2009-05-28 08:53 51°29.918 2°57.099 13.4 36 14.2 102770 97
2009-05-28 08:54 51°30.098 2°56.982 11.1 39 14.2 102770 97
2009-05-28 08:55 51°30.28 2°56.866 14 34 14.2 102770 98
2009-05-28 08:56 51°30.461 2°56.746 10.6 40 14.1 102770 98
2009-05-28 08:57 51°30.641 2°56.625 13.2 35 14.1 102780 98
2009-05-28 08:58 51°30.821 2°56.502 12.9 33 14.1 102770 98
2009-05-28 08:59 51°30.996 2°56.373 10.5 37 14.1 102770 98
2009-05-28 09:00 51°31.172 2°56.248 10 36 14.1 102780 98
2009-05-28 09:01 51°31.345 2°56.121 10.7 36 14.1 102770 98
2009-05-28 09:02 51°31.517 2°56 12.9 36 14.1 102780 97
2009-05-28 09:03 51°31.688 2°55.865 13.8 315 14.1 102780 97
2009-05-28 09:04 51°31.779 2°55.607 12.9 326 14.1 102770 97
2009-05-28 09:05 51°31.827 2°55.309 10.7 327 14.1 102780 97
2009-05-28 09:06 51°31.862 2°55.076 12.7 328 14.2 102790 97
2009-05-28 09:07 51°31.888 2°54.844 12.8 331 14.1 102780 97
2009-05-28 09:08 51°31.892 2°54.607 11.7 332 14.1 102790 97
2009-05-28 09:09 51°31.867 2°54.367 11.3 340 14.1 102790 97
2009-05-28 09:10 51°31.789 2°54.118 11.9 341 14.1 102790 97
2009-05-28 09:11 51°31.689 2°53.837 12 339 14.1 102780 97
2009-05-28 09:12 51°31.597 2°53.542 13.7 340 14.1 102790 97
2009-05-28 09:13 51°31.5 2°53.249 13.7 340 14.1 102790 97
2009-05-28 09:14 51°31.396 2°52.964 13.4 339 14.1 102790 97
2009-05-28 09:15 51°31.295 2°52.676 11.9 339 14.1 102790 97
2009-05-28 09:16 51°31.194 2°52.382 11.7 340 14.1 102800 97
2009-05-28 09:17 51°31.092 2°52.099 13.7 340 14.1 102800 97
2009-05-28 09:18 51°30.988 2°51.813 12.9 342 14.1 102790 97
2009-05-28 09:19 51°30.882 2°51.52 11.5 339 14.1 102790 97
2009-05-28 09:20 51°30.781 2°51.233 13.8 339 14.1 102800 97
2009-05-28 09:21 51°30.677 2°50.942 13.4 339 14.1 102800 97
2009-05-28 09:22 51°30.573 2°50.652 13.7 340 14.1 102800 96
2009-05-28 09:23 51°30.464 2°50.365 13.6 339 14.1 102800 97
2009-05-28 09:24 51°30.358 2°50.073 12.1 338 14.1 102800 97
2009-05-28 09:25 51°30.251 2°49.775 13.8 340 14.1 102800 96
2009-05-28 09:26 51°30.142 2°49.484 11.3 337 14.1 102800 97
2009-05-28 09:27 51°30.039 2°49.191 12.5 338 14.1 102810 96
2009-05-28 09:28 51°29.929 2°48.889 11.9 339 14.1 102800 96
2009-05-28 09:29 51°29.822 2°48.596 11.4 336 14.1 102810 97
2009-05-28 09:30 51°29.716 2°48.294 11.9 339 14.1 102810 96
2009-05-28 09:31 51°29.607 2°47.987 13.7 339 14.1 102810 97
2009-05-28 09:32 51°29.501 2°47.682 12.8 335 14.1 102810 96
2009-05-28 09:33 51°29.392 2°47.387 12.4 336 14.1 102810 96
2009-05-28 09:34 51°29.281 2°47.08 12.8 337 14.1 102820 96
2009-05-28 09:35 51°29.174 2°46.776 11 334 14.1 102820 96
2009-05-28 09:36 51°29.07 2°46.476 11.3 336 14 102820 96
2009-05-28 09:37 51°28.959 2°46.168 11.1 336 14 102820 97
2009-05-28 09:38 51°28.855 2°45.868 12.8 335 14 102820 97
2009-05-28 09:39 51°28.749 2°45.561 11.2 337 14 102820 97
2009-05-28 09:40 51°28.64 2°45.252 11.5 336 14 102820 97
2009-05-28 09:41 51°28.536 2°44.944 12.1 339 14 102820 97
2009-05-28 09:42 51°28.429 2°44.638 13.1 338 14 102830 97
2009-05-28 09:43 51°28.323 2°44.331 11.3 338 14 102830 97
2009-05-28 09:44 51°28.218 2°44.023 13.7 339 14 102830 97
2009-05-28 09:45 51°28.112 2°43.721 13.5 339 14 102840 97
2009-05-28 09:46 51°27.999 2°43.412 12.2 340 14 102830 97
2009-05-28 09:47 51°27.89 2°43.112 12.5 339 14 102840 97
2009-05-28 09:48 51°27.783 2°42.804 11.7 340 14 102840 97
2009-05-28 09:49 51°27.673 2°42.496 13.2 340 14 102840 97
2009-05-28 09:50 51°27.564 2°42.186 13.7 339 14 102840 97
2009-05-28 09:51 51°27.519 2°41.852 12.8 332 14 102850 97
2009-05-28 09:52 51°27.506 2°41.508 11.8 332 14 102850 97
2009-05-28 09:53 51°27.491 2°41.157 12.4 333 14 102850 97
2009-05-28 09:54 51°27.472 2°40.82 13.4 331 14 102840 97
2009-05-28 09:55 51°27.453 2°40.472 13.2 332 14 102850 97
2009-05-28 09:56 51°27.457 2°40.144 12.6 327 14 102850 97
2009-05-28 09:57 51°27.561 2°39.884 9 315 14.1 102830 98
2009-05-28 09:58 51°27.714 2°39.724 8.7 315 14 102840 98
2009-05-28 09:59 51°27.873 2°39.585 10.6 36 14 102860 96
2009-05-28 10:00 51°28.033 2°39.444 10.4 39 14 102870 97
2009-05-28 10:01 51°28.197 2°39.324 8.8 34 14 102870 97
2009-05-28 10:02 51°28.374 2°39.267 9.5 237 14 102870 98
2009-05-28 10:03 51°28.528 2°39.346 5 247 14.1 102880 98
2009-05-28 10:04 51°28.608 2°39.585 3 245 14.1 102880 98
2009-05-28 10:05 51°28.686 2°39.822 4.4 243 14.2 102890 98
2009-05-28 10:06 51°28.766 2°40.072 3.7 247 14.3 102890 98
2009-05-28 10:07 51°28.847 2°40.316 3.9 250 14.3 102890 98
2009-05-28 10:08 51°28.923 2°40.559 3.9 250 14.4 102890 97
2009-05-28 10:09 51°29.001 2°40.805 3.3 243 14.4 102900 97
2009-05-28 10:10 51°29.079 2°41.04 3.4 244 14.5 102900 97
2009-05-28 10:11 51°29.154 2°41.286 3.6 241 14.6 102900 97
2009-05-28 10:12 51°29.231 2°41.527 3.2 239 14.6 102900 96
2009-05-28 10:13 51°29.305 2°41.766 3.2 242 14.6 102900 96
2009-05-28 10:14 51°29.382 2°42.009 3.5 238 14.6 102900 95
2009-05-28 10:15 51°29.46 2°42.256 3.2 31 14.6 102900 95
2009-05-28 10:16 51°29.539 2°42.498 4.1 242 14.6 102910 96
2009-05-28 10:17 51°29.617 2°42.733 4.3 32 14.6 102910 96
2009-05-28 10:18 51°29.699 2°42.979 3.9 33 14.5 102910 95
2009-05-28 10:19 51°29.79 2°43.206 4.2 236 14.5 102910 95
2009-05-28 10:20 51°29.882 2°43.432 4.4 239 14.4 102910 95
2009-05-28 10:21 51°29.973 2°43.655 4.4 232 14.4 102910 96
2009-05-28 10:22 51°30.064 2°43.877 5.1 238 14.3 102910 96
2009-05-28 10:23 51°30.159 2°44.105 4.6 236 14.3 102920 96
2009-05-28 10:24 51°30.25 2°44.328 4.5 233 14.3 102910 96
2009-05-28 10:25 51°30.344 2°44.557 4.8 235 14.2 102910 96
2009-05-28 10:26 51°30.434 2°44.78 3.9 33 14.2 102910 96
2009-05-28 10:27 51°30.528 2°45.007 4 34 14.2 102910 96
2009-05-28 10:28 51°30.621 2°45.235 4.7 234 14.1 102910 96
2009-05-28 10:29 51°30.716 2°45.463 3.9 31 14.1 102910 96
2009-05-28 10:30 51°30.812 2°45.688 4.4 31 14.1 102910 96
2009-05-28 10:31 51°30.907 2°45.915 4.3 33 14 102920 97
2009-05-28 10:32 51°31.002 2°46.136 3.4 36 14 102920 97
2009-05-28 10:33 51°31.095 2°46.353 4.1 40 14 102920 97
2009-05-28 10:34 51°31.188 2°46.58 4 316 14 102920 97
2009-05-28 10:35 51°31.268 2°46.809 4.3 319 14 102920 97
2009-05-28 10:36 51°31.358 2°47.038 4.2 38 14.1 102920 97
2009-05-28 10:37 51°31.444 2°47.26 4.6 34 14 102930 97
2009-05-28 10:38 51°31.53 2°47.493 5 37 14 102920 97
2009-05-28 10:39 51°31.615 2°47.719 4.7 33 14 102920 97
2009-05-28 10:40 51°31.704 2°47.944 5.5 32 14 102920 97
2009-05-28 10:41 51°31.794 2°48.171 5 37 14 102920 97
2009-05-28 10:42 51°31.881 2°48.395 4.5 34 14 102920 97
2009-05-28 10:43 51°31.969 2°48.615 4.1 40 14 102920 97
2009-05-28 10:44 51°32.052 2°48.831 4.2 315 14 102920 97
2009-05-28 10:45 51°32.138 2°49.057 4.6 40 14.1 102930 98
2009-05-28 10:46 51°32.223 2°49.272 4.8 35 14.1 102930 98
2009-05-28 10:47 51°32.309 2°49.496 5 34 14.1 102930 98
2009-05-28 10:48 51°32.395 2°49.717 5.3 37 14.1 102930 98
2009-05-28 10:49 51°32.482 2°49.934 6.7 237 14.1 102930 98
2009-05-28 10:50 51°32.567 2°50.152 5.6 239 14.1 102930 98
2009-05-28 10:51 51°32.65 2°50.377 4.9 238 14.1 102930 97
2009-05-28 10:52 51°32.731 2°50.599 5.1 237 14.1 102940 98
2009-05-28 10:53 51°32.816 2°50.824 5.4 240 14.2 102940 97
2009-05-28 10:54 51°32.902 2°51.055 4.9 237 14.2 102940 97
2009-05-28 10:55 51°32.981 2°51.283 4.6 237 14.2 102940 97
2009-05-28 10:56 51°33.061 2°51.517 6.1 243 14.2 102940 97
2009-05-28 10:57 51°33.144 2°51.757 6 244 14.3 102940 97
2009-05-28 10:58 51°33.224 2°51.996 5.7 249 14.3 102940 97
2009-05-28 10:59 51°33.301 2°52.232 5.9 246 14.3 102940 97
2009-05-28 11:00 51°33.378 2°52.47 5.8 246 14.3 102940 97
2009-05-28 11:01 51°33.457 2°52.707 5.9 246 14.3 102940 97
2009-05-28 11:02 51°33.537 2°52.941 6.2 245 14.3 102940 97
2009-05-28 11:03 51°33.616 2°53.178 5.8 241 14.3 102940 97
2009-05-28 11:04 51°33.696 2°53.418 5.4 244 14.3 102950 97
2009-05-28 11:05 51°33.776 2°53.658 5.2 245 14.3 102950 97
2009-05-28 11:06 51°33.856 2°53.896 4.9 243 14.4 102950 97
2009-05-28 11:07 51°33.934 2°54.132 5.5 241 14.4 102960 97
2009-05-28 11:08 51°34.016 2°54.374 5.4 244 14.4 102960 97
2009-05-28 11:09 51°34.103 2°54.601 6.7 248 14.4 102950 97
2009-05-28 11:10 51°34.191 2°54.828 5.6 243 14.5 102950 97
2009-05-28 11:11 51°34.28 2°55.056 6.3 244 14.5 102950 97
2009-05-28 11:12 51°34.37 2°55.282 5.6 244 14.5 102960 97
2009-05-28 11:13 51°34.46 2°55.511 5.7 244 14.5 102960 96
2009-05-28 11:14 51°34.548 2°55.741 5.9 244 14.6 102960 96
2009-05-28 11:15 51°34.636 2°55.97 5.9 242 14.6 102960 96
2009-05-28 11:16 51°34.723 2°56.198 5.9 244 14.6 102950 96
2009-05-28 11:17 51°34.808 2°56.428 5.6 244 14.5 102950 96
2009-05-28 11:18 51°34.895 2°56.655 6.8 247 14.6 102950 96
2009-05-28 11:19 51°34.982 2°56.884 5.8 246 14.6 102950 96
2009-05-28 11:20 51°35.067 2°57.113 6.2 246 14.6 102950 96
2009-05-28 11:21 51°35.151 2°57.333 6.3 245 14.6 102950 96
2009-05-28 11:22 51°35.236 2°57.559 6.5 245 14.6 102960 96
2009-05-28 11:23 51°35.321 2°57.78 6.1 242 14.6 102950 96
2009-05-28 11:24 51°35.404 2°58.001 6.1 245 14.6 102950 96
2009-05-28 11:25 51°35.49 2°58.221 6.2 244 14.6 102950 96
2009-05-28 11:26 51°35.574 2°58.437 5.7 248 14.6 102950 96
2009-05-28 11:27 51°35.632 2°58.688 4.3 245 14.6 102960 96
2009-05-28 11:28 51°35.653 2°58.948 1.7 249 14.6 102970 96
2009-05-28 11:29 51°35.555 2°59.194 1.5 9 14.7 102960 96
2009-05-28 11:30 51°35.428 2°59.415 1.6 12 14.6 102970 95
2009-05-28 11:31 51°35.3 2°59.648 1.5 -999 14.6 102960 96
2009-05-28 11:32 51°35.179 2°59.884 2.1 18 14.6 102970 96
2009-05-28 11:33 51°35.061 3°0.124 0.7 11 14.6 102970 96
2009-05-28 11:34 51°34.945 3°0.362 1 352 14.6 102970 96
2009-05-28 11:35 51°34.821 3°0.607 1 -999 14.6 102970 96
2009-05-28 11:36 51°34.699 3°0.851 2 -999 14.6 102970 96
2009-05-28 11:37 51°34.546 3°1.065 4.9 8 14.6 102970 96
2009-05-28 11:38 51°34.331 3°1.109 7.3 355 14.5 102970 96
2009-05-28 11:39 51°34.139 3°0.928 10.8 346 14.5 102960 96
2009-05-28 11:40 51°34.007 3°0.647 11.5 345 14.4 102960 96
2009-05-28 11:41 51°33.888 3°0.359 11.7 344 14.4 102960 96
2009-05-28 11:42 51°33.765 3°0.065 12.2 342 14.4 102960 96
2009-05-28 11:43 51°33.647 2°59.773 11.3 343 14.4 102970 97
2009-05-28 11:44 51°33.53 2°59.479 11.1 343 14.4 102970 97
2009-05-28 11:45 51°33.416 2°59.183 9.6 341 14.4 102970 96
2009-05-28 11:46 51°33.342 2°58.868 11.5 335 14.4 102970 96
2009-05-28 11:47 51°33.326 2°58.538 10.8 335 14.4 102970 96
2009-05-28 11:48 51°33.333 2°58.21 10.3 332 14.4 102970 96
2009-05-28 11:49 51°33.368 2°57.891 10.3 330 14.4 102980 96
2009-05-28 11:50 51°33.446 2°57.604 11.4 326 14.4 102990 96
2009-05-28 11:51 51°33.544 2°57.337 11.5 325 14.4 102980 96
2009-05-28 11:52 51°33.645 2°57.071 11.3 325 14.4 102990 96
2009-05-28 11:53 51°33.752 2°56.808 10.1 325 14.4 102990 96
2009-05-28 11:54 51°33.86 2°56.547 10 325 14.4 102990 96
2009-05-28 11:55 51°33.967 2°56.284 9.4 325 14.4 102990 96
2009-05-28 11:56 51°34.081 2°56.031 10.4 323 14.4 103000 96
2009-05-28 11:57 51°34.197 2°55.777 10 327 14.4 102990 96
2009-05-28 11:58 51°34.261 2°55.471 10 335 14.4 102990 96
2009-05-28 11:59 51°34.241 2°55.127 11.2 338 14.3 103000 96
2009-05-28 12:00 51°34.193 2°54.784 10.1 339 14.3 102980 96
2009-05-28 12:01 51°34.139 2°54.442 9 340 14.2 102990 97
2009-05-28 12:02 51°34.085 2°54.102 9.6 340 14.2 102990 97
2009-05-28 12:03 51°34.032 2°53.761 10.3 339 14.2 102990 97
2009-05-28 12:04 51°33.983 2°53.417 11.7 339 14.2 102990 97
2009-05-28 12:05 51°33.947 2°53.073 11.8 332 14.2 102980 97
2009-05-28 12:06 51°34.039 2°52.811 11.3 323 14.2 102990 97
2009-05-28 12:07 51°34.18 2°52.594 11.4 322 14.2 102990 97
2009-05-28 12:08 51°34.325 2°52.389 12.2 325 14.3 102990 97
2009-05-28 12:09 51°34.469 2°52.186 11.3 321 14.3 102990 97
2009-05-28 12:10 51°34.616 2°51.975 10.7 322 14.3 102990 97
2009-05-28 12:11 51°34.765 2°51.757 12.1 324 14.3 102990 97
2009-05-28 12:12 51°34.91 2°51.54 10.6 324 14.3 102990 97
2009-05-28 12:13 51°35.061 2°51.35 10 326 14.3 102990 97
2009-05-28 12:14 51°35.208 2°51.162 9.4 325 14.3 103000 97
2009-05-28 12:15 51°35.374 2°51.1 9.4 38 14.3 103000 97
2009-05-28 12:16 51°35.504 2°51.243 7.2 238 14.3 103000 96
2009-05-28 12:17 51°35.603 2°51.476 7 32 14.3 103000 96
2009-05-28 12:18 51°35.699 2°51.717 7.3 236 14.3 102990 96
2009-05-28 12:19 51°35.792 2°51.958 6.7 35 14.3 103000 96
2009-05-28 12:20 51°35.886 2°52.21 7.7 232 14.3 102990 96
2009-05-28 12:21 51°35.981 2°52.453 7.9 34 14.3 102990 96
2009-05-28 12:22 51°36.075 2°52.7 6 36 14.3 103000 96
2009-05-28 12:23 51°36.168 2°52.942 6.7 234 14.2 102990 97
2009-05-28 12:24 51°36.264 2°53.191 7.6 31 14.2 103000 97
2009-05-28 12:25 51°36.361 2°53.435 6.3 37 14.2 103000 97
2009-05-28 12:26 51°36.455 2°53.682 6.6 37 14.2 103000 97
2009-05-28 12:27 51°36.546 2°53.926 7.1 40 14.2 103000 97
2009-05-28 12:28 51°36.674 2°54.123 8.9 38 14.2 103000 97
2009-05-28 12:29 51°36.81 2°54.29 7.8 40 14.2 103010 97
2009-05-28 12:30 51°36.953 2°54.464 7.7 33 14.2 103010 97
2009-05-28 12:31 51°37.093 2°54.633 8.9 38 14.2 103010 97
2009-05-28 12:32 51°37.247 2°54.729 8.6 317 14.2 103000 97
2009-05-28 12:33 51°37.413 2°54.715 10.8 321 14.2 103010 97
2009-05-28 12:34 51°37.579 2°54.617 9.2 324 14.3 103010 97
2009-05-28 12:35 51°37.73 2°54.476 10.1 325 14.3 103000 97
2009-05-28 12:36 51°37.873 2°54.288 11.8 327 14.2 103000 97
2009-05-28 12:37 51°38.014 2°54.099 11.5 328 14.2 103010 97
2009-05-28 12:38 51°38.154 2°53.907 11.5 326 14.2 103010 97
2009-05-28 12:39 51°38.296 2°53.717 9.8 327 14.2 102990 97
2009-05-28 12:40 51°38.44 2°53.53 11.5 327 14.2 103000 97
2009-05-28 12:41 51°38.583 2°53.342 10.1 326 14.2 103010 97
2009-05-28 12:42 51°38.727 2°53.157 11.3 326 14.2 103010 97
2009-05-28 12:43 51°38.872 2°52.971 10.1 327 14.2 103010 97
2009-05-28 12:44 51°39.019 2°52.787 11.5 328 14.2 103010 97
2009-05-28 12:45 51°39.138 2°52.554 10.1 331 14.2 103010 97
2009-05-28 12:46 51°39.246 2°52.298 11.5 331 14.2 103010 97
2009-05-28 12:47 51°39.353 2°52.041 9.7 330 14.2 103010 97
2009-05-28 12:48 51°39.463 2°51.789 9.5 332 14.2 103010 97
2009-05-28 12:49 51°39.574 2°51.537 9.6 330 14.2 103010 97
2009-05-28 12:50 51°39.686 2°51.29 9.4 331 14.2 103010 97
2009-05-28 12:51 51°39.729 2°50.993 9.9 342 14.2 103000 97
2009-05-28 12:52 51°39.656 2°50.684 8.4 343 14.2 103010 97
2009-05-28 12:53 51°39.541 2°50.396 8.5 346 14.1 103010 97
2009-05-28 12:54 51°39.403 2°50.139 8.1 347 14.1 103010 97
2009-05-28 12:55 51°39.234 2°49.925 6.4 352 14 103010 97
2009-05-28 12:56 51°39.034 2°49.784 5.8 350 14 103010 97
2009-05-28 12:57 51°38.826 2°49.675 6.2 353 14 103020 98
2009-05-28 12:58 51°38.626 2°49.554 6.2 352 14 103020 98
2009-05-28 12:59 51°38.425 2°49.416 7 349 14 103020 98
2009-05-28 13:00 51°38.227 2°49.283 7 348 13.9 103010 98
2009-05-28 13:01 51°38.024 2°49.135 6.9 348 13.9 103020 98
2009-05-28 13:02 51°37.829 2°48.989 5.7 349 13.9 103020 98
2009-05-28 13:03 51°37.627 2°48.834 6.7 347 13.8 103010 98
2009-05-28 13:04 51°37.43 2°48.679 5.7 350 13.8 103010 98
2009-05-28 13:05 51°37.233 2°48.525 6.7 349 13.8 103020 99
2009-05-28 13:06 51°37.035 2°48.373 5.4 348 13.8 103010 99
2009-05-28 13:07 51°36.838 2°48.22 5.8 347 13.8 103010 99
2009-05-28 13:08 51°36.642 2°48.068 5.3 345 13.8 103010 99
2009-05-28 13:09 51°36.445 2°47.917 6.5 349 13.8 103010 99
2009-05-28 13:10 51°36.248 2°47.769 5.9 344 13.8 103010 99
2009-05-28 13:11 51°36.056 2°47.623 7.1 345 13.8 103020 99
2009-05-28 13:12 51°35.858 2°47.466 6.5 345 13.8 103010 99
2009-05-28 13:13 51°35.663 2°47.316 6.5 347 13.9 103010 98
2009-05-28 13:14 51°35.462 2°47.197 6.1 348 13.9 103020 99
2009-05-28 13:15 51°35.25 2°47.17 5.9 347 13.9 103020 98
2009-05-28 13:16 51°35.036 2°47.161 5.7 347 13.8 103020 99
2009-05-28 13:17 51°34.826 2°47.153 6 345 13.9 103020 99
2009-05-28 13:18 51°34.615 2°47.142 6.8 346 13.8 103020 99
2009-05-28 13:19 51°34.403 2°47.127 6.4 347 13.8 103030 99
2009-05-28 13:20 51°34.191 2°47.108 6 347 13.8 103020 99
2009-05-28 13:21 51°33.978 2°47.095 6.3 348 13.7 103020 99
2009-05-28 13:22 51°33.769 2°47.08 5.8 351 13.7 103030 99
2009-05-28 13:23 51°33.559 2°47.063 6 350 13.7 103020 99
2009-05-28 13:24 51°33.351 2°47.046 6.1 348 13.7 103020 99
2009-05-28 13:25 51°33.144 2°47.032 6.1 351 13.7 103020 99
2009-05-28 13:26 51°32.937 2°47.024 5.6 351 13.7 103020 99
2009-05-28 13:27 51°32.732 2°46.998 6.1 352 13.7 103020 99
2009-05-28 13:28 51°32.528 2°46.967 5.8 354 13.8 103020 99
2009-05-28 13:29 51°32.324 2°46.949 5.4 355 13.8 103020 99
2009-05-28 13:30 51°32.123 2°46.964 5.3 354 13.8 103020 99
2009-05-28 13:31 51°31.917 2°47 4.5 350 13.8 103020 99
2009-05-28 13:32 51°31.712 2°47.028 4.6 352 13.9 103020 99
2009-05-28 13:33 51°31.51 2°47.061 4.9 356 13.9 103020 99
2009-05-28 13:34 51°31.302 2°47.099 4.8 355 13.9 103020 99
2009-05-28 13:35 51°31.097 2°47.135 3.9 351 13.9 103020 99
2009-05-28 13:36 51°30.893 2°47.178 4.3 353 13.9 103020 99
2009-05-28 13:37 51°30.688 2°47.221 4.1 350 13.9 103020 99
2009-05-28 13:38 51°30.483 2°47.259 3.4 347 13.9 103020 99
2009-05-28 13:39 51°30.278 2°47.298 3.6 349 14 103020 99
2009-05-28 13:40 51°30.073 2°47.339 2.9 350 14 103010 99
2009-05-28 13:41 51°29.87 2°47.379 3.4 346 14 103010 99
2009-05-28 13:42 51°29.669 2°47.426 3.3 349 14.1 103010 97
2009-05-28 13:43 51°29.463 2°47.469 3.9 349 14.1 103010 99
2009-05-28 13:44 51°29.255 2°47.504 3.9 353 14.2 103010 99
2009-05-28 13:45 51°29.05 2°47.521 3.4 348 14.2 103000 98
2009-05-28 13:46 51°28.847 2°47.545 3.8 350 14.2 103010 98
2009-05-28 13:47 51°28.644 2°47.566 3.6 348 14.2 103000 98
2009-05-28 13:48 51°28.443 2°47.585 3.4 349 14.2 103010 98
2009-05-28 13:49 51°28.245 2°47.602 3.2 347 14.2 103010 98
2009-05-28 13:50 51°28.053 2°47.618 3.7 351 14.2 103000 98
2009-05-28 13:51 51°27.862 2°47.63 3.3 348 14.2 103000 98
2009-05-28 13:52 51°27.673 2°47.635 3.9 347 14.3 103000 98
2009-05-28 13:53 51°27.477 2°47.642 4 349 14.3 103010 98
2009-05-28 13:54 51°27.288 2°47.657 3.4 344 14.3 103010 97
2009-05-28 13:55 51°27.093 2°47.673 3.6 343 14.4 103010 98
2009-05-28 13:56 51°26.904 2°47.685 4 347 14.4 103010 98
2009-05-28 13:57 51°26.706 2°47.705 4.5 347 14.5 103010 97
2009-05-28 13:58 51°26.513 2°47.729 4.2 348 14.4 103020 97
2009-05-28 13:59 51°26.318 2°47.749 3.9 346 14.4 103010 97
2009-05-28 14:00 51°26.124 2°47.771 4.6 345 14.5 103010 97
2009-05-28 14:01 51°25.924 2°47.795 4 347 14.5 103020 97
2009-05-28 14:02 51°25.731 2°47.824 4 349 14.5 103010 97
2009-05-28 14:03 51°25.538 2°47.85 3.8 344 14.6 103010 97
2009-05-28 14:04 51°25.343 2°47.883 3.9 343 14.6 103010 97
2009-05-28 14:05 51°25.162 2°47.987 2.5 341 14.6 103020 97
2009-05-28 14:06 51°24.986 2°48.11 2.6 346 14.7 103020 95
2009-05-28 14:07 51°24.805 2°48.224 2.8 340 14.8 103020 96
2009-05-28 14:08 51°24.626 2°48.346 3.3 345 14.9 103020 96
2009-05-28 14:09 51°24.446 2°48.472 2.8 340 14.9 103020 96
2009-05-28 14:10 51°24.265 2°48.598 2.4 345 15 103020 96
2009-05-28 14:11 51°24.087 2°48.716 3.2 345 15.1 103020 95
2009-05-28 14:12 51°23.904 2°48.845 2.9 349 15.1 103020 94
2009-05-28 14:13 51°23.723 2°48.966 3.1 344 15.1 103020 91
2009-05-28 14:14 51°23.54 2°49.086 2.7 338 15.1 103020 94
2009-05-28 14:15 51°23.358 2°49.211 3.1 347 15.1 103020 94
2009-05-28 14:16 51°23.177 2°49.325 3.1 332 15.1 103020 94
2009-05-28 14:17 51°22.992 2°49.453 3.2 329 15.2 103030 94
2009-05-28 14:18 51°22.811 2°49.583 2 336 15.4 103030 94
2009-05-28 14:19 51°22.633 2°49.709 2 326 15.4 103030 94
2009-05-28 14:20 51°22.452 2°49.844 3.1 333 15.6 103030 94
2009-05-28 14:21 51°22.278 2°49.971 3.5 346 15.8 103030 94
2009-05-28 14:22 51°22.097 2°50.098 3.8 346 15.8 103030 92
2009-05-28 14:23 51°21.919 2°50.224 3.3 353 15.6 103040 91
2009-05-28 14:24 51°21.742 2°50.338 3.6 349 15.5 103030 91
2009-05-28 14:25 51°21.569 2°50.447 3.8 349 15.4 103030 92
2009-05-28 14:26 51°21.396 2°50.556 3.9 349 15.3 103030 92
2009-05-28 14:27 51°21.223 2°50.667 3.9 343 15.3 103030 93
2009-05-28 14:28 51°21.054 2°50.784 4.2 352 15.3 103030 93
2009-05-28 14:29 51°20.877 2°50.892 3.8 349 15.2 103030 93
2009-05-28 14:30 51°20.701 2°50.997 4.4 349 15.2 103030 94
2009-05-28 14:31 51°20.528 2°51.104 4.1 351 15.2 103030 94
2009-05-28 14:32 51°20.349 2°51.214 4.3 351 15.1 103030 94
2009-05-28 14:33 51°20.172 2°51.312 4 351 15.1 103030 94
2009-05-28 14:34 51°19.993 2°51.4 4.4 348 15.1 103030 94
2009-05-28 14:35 51°19.813 2°51.484 4.6 349 15.1 103030 94
2009-05-28 14:36 51°19.633 2°51.565 5.2 350 15.1 103030 94
2009-05-28 14:37 51°19.455 2°51.645 4.7 347 15.1 103030 94
2009-05-28 14:38 51°19.275 2°51.724 4.5 348 15.1 103030 94
2009-05-28 14:39 51°19.094 2°51.805 4.9 347 15.1 103030 94
2009-05-28 14:40 51°18.915 2°51.884 5 349 15.1 103040 94
2009-05-28 14:41 51°18.734 2°51.943 4.7 348 15.1 103030 95
2009-05-28 14:42 51°18.552 2°51.992 5.3 353 15.2 103030 95
2009-05-28 14:43 51°18.372 2°52.044 4.7 350 15.2 103040 95
2009-05-28 14:44 51°18.192 2°52.101 4.9 347 15.3 103030 94
2009-05-28 14:45 51°18.013 2°52.158 5.1 349 15.2 103040 94
2009-05-28 14:46 51°17.834 2°52.212 4.8 349 15.3 103040 94
2009-05-28 14:47 51°17.656 2°52.274 4.7 348 15.3 103040 94
2009-05-28 14:48 51°17.483 2°52.358 5.5 352 15.3 103040 94
2009-05-28 14:49 51°17.305 2°52.461 4.7 349 15.3 103030 94
2009-05-28 14:50 51°17.132 2°52.574 4.5 348 15.3 103040 94
2009-05-28 14:51 51°16.96 2°52.691 4.3 347 15.3 103040 95
2009-05-28 14:52 51°16.788 2°52.809 4.4 347 15.3 103050 94
2009-05-28 14:53 51°16.614 2°52.93 4.5 347 15.3 103040 95
2009-05-28 14:54 51°16.437 2°53.04 4.8 347 15.3 103040 94
2009-05-28 14:55 51°16.265 2°53.152 4 344 15.3 103050 95
2009-05-28 14:56 51°16.092 2°53.264 4.2 344 15.3 103050 95
2009-05-28 14:57 51°15.917 2°53.367 4 345 15.4 103050 95
2009-05-28 14:58 51°15.744 2°53.463 4.1 350 15.4 103050 95
2009-05-28 14:59 51°15.57 2°53.557 3.9 341 15.3 103050 95
2009-05-28 15:00 51°15.4 2°53.649 4.9 345 15.3 103050 95
2009-05-28 15:01 51°15.223 2°53.737 4.6 348 15.3 103050 95
2009-05-28 15:02 51°15.048 2°53.821 4.8 347 15.4 103050 95
2009-05-28 15:03 51°14.876 2°53.925 4 353 15.4 103050 95
2009-05-28 15:04 51°14.756 2°54.174 2.5 333 15.4 103050 95
2009-05-28 15:05 51°14.646 2°54.451 2.9 338 15.5 103050 95
2009-05-28 15:06 51°14.523 2°54.718 2.2 336 15.6 103050 95
2009-05-28 15:07 51°14.407 2°54.987 3.3 339 15.7 103050 94
2009-05-28 15:08 51°14.297 2°55.18 1.1 31 15.8 103050 93
2009-05-28 15:09 51°14.239 2°55.295 1.1 35 15.8 103060 93
2009-05-28 15:10 51°14.183 2°55.37 2.6 28 15.9 103060 94
2009-05-28 15:11 51°14.113 2°55.423 2.6 26 16 103050 93
2009-05-28 15:12 51°14.007 2°55.495 2.3 359 16.1 103060 93
2009-05-28 15:13 51°13.889 2°55.578 1 357 16.1 103050 91
2009-05-28 15:14 51°13.792 2°55.656 1.9 24 16.1 103050 90
2009-05-28 15:15 51°13.731 2°55.758 1.6 39 16.3 103060 90
2009-05-28 15:16 51°13.686 2°55.854 2.3 39 16.3 103060 87